Location: Unspecified
(0.0000°N, 0.0000°E)
Time: 11:58:58
(UTC+02:00)

Meteor PRIRODA - Visible Passes

Search period start: 20 September 2014 00:00
Search period end: 30 September 2014 00:00
Orbit: 511 x 532 km, 97.3° (Epoch: 18 September)

Date Brightness Start Highest point End Pass type
(mag) Time Alt. Az. Time Alt. Az. Time Alt. Az.
20 Sep 4.7 07:16:18 10° NNW 07:19:32 27° W 07:22:46 10° SW visible
21 Sep 4.0 07:03:00 10° N 07:06:37 43° W 07:10:14 10° SSW visible
22 Sep 3.6 06:49:54 10° N 06:53:41 73° W 06:57:29 10° SSW visible
23 Sep 4.0 06:36:59 10° NNE 06:40:45 67° E 06:44:31 10° S visible
24 Sep 5.1 06:24:14 10° NNE 06:27:49 40° E 06:31:22 10° S visible
25 Sep 6.0 06:11:43 10° NE 06:14:51 25° E 06:17:59 10° SSE visible
26 Sep 6.7 05:59:33 10° ENE 06:01:54 16° E 06:04:15 10° SE visible
27 Sep 4.8 07:19:49 10° NNW 07:22:51 23° W 07:25:53 10° SW visible
28 Sep 4.2 07:06:22 10° N 07:09:52 37° W 07:13:22 10° SSW visible
29 Sep 3.6 06:53:08 10° N 06:56:52 62° W 07:00:36 10° SSW visible
